Location: Berduj
(43.0019°N, 22.3781°E)
Time: 00:09:57
(UTC+00:00)

YAOGAN 1 - Pass Details

Date: 19 October 2019
Orbit: 619 x 621 km, 98.0° (Epoch: 21 November)

Event Time Altitude Azimuth Distance (km) Brightness Sun altitude
Rises 17:02:41 0° 169° (S) 2,883 5.9 -15.4°
Reaches altitude 10° 17:04:52 10° 171° (S) 1,982 5.0 -15.8°
Maximum altitude 17:09:11 76° 258° (WSW) 644 2.7 -16.6°
Drops below altitude 10° 17:13:32 10° 344° (NNW) 1,997 5.4 -17.4°
Sets 17:15:44 0° 346° (NNW) 2,908 6.2 -17.8°
